PIMOHWEATHER Station Historical Data
Daily Summary for June 25, 2020 Units:  Metric    English   Both
Daily Weekly Monthly Yearly
  High: Low: Average:
Temperature: 35.0 °C 26.0 °C 29.6 °C
Dew Point: 28.0 °C 24.0 °C 26 °C
Humidity: 93% 68% 82%
Wind Speed: 20km/h 0km/h 2.2km/h
Wind Gust: 24km/h - -
Wind- - SW
Pressure: 1009.5 hPa 1004.4 hPa -
Precipitation: 8.64 mm    
 
 
Tabular Data for June 25, 2020
Time Temperature Dew Point Pressure Wind Wind Speed Wind Gust Humidity Rainfall Rate (Hourly) solar
00:04 28.0 °C 25.0 °C 1007.5 hPa Calm     88% 0.00 mm 0.00 W/m2
00:09 28.0 °C 25.0 °C 1007.8 hPa Calm     88% 0.00 mm 0.00 W/m2
00:14 28.0 °C 25.0 °C 1007.5 hPa Calm     88% 0.00 mm 0.00 W/m2
00:19 28.0 °C 25.0 °C 1007.5 hPa Calm     88% 0.00 mm 0.00 W/m2
00:24 28.0 °C 25.0 °C 1007.5 hPa Calm     88% 0.00 mm 0.00 W/m2
00:29 28.0 °C 25.0 °C 1007.1 hPa Calm     88% 0.00 mm 0.00 W/m2
00:34 28.0 °C 25.0 °C 1007.1 hPa Calm     88% 0.00 mm 0.00 W/m2
00:39 27.0 °C 25.0 °C 1007.1 hPa Calm     88% 0.00 mm 0.00 W/m2
00:44 27.0 °C 25.0 °C 1007.1 hPa Calm     88% 0.00 mm 0.00 W/m2
00:49 27.0 °C 25.0 °C 1006.8 hPa Calm     88% 0.00 mm 0.00 W/m2
00:54 27.0 °C 25.0 °C 1006.8 hPa Calm     88% 0.00 mm 0.00 W/m2
00:59 27.0 °C 25.0 °C 1006.8 hPa Calm     88% 0.00 mm 0.00 W/m2
01:04 27.0 °C 25.0 °C 1006.8 hPa Calm     87% 0.00 mm 0.00 W/m2
01:09 27.0 °C 25.0 °C 1006.8 hPa Calm     87% 0.00 mm 0.00 W/m2
01:14 28.0 °C 25.0 °C 1006.8 hPa Calm     86% 0.00 mm 0.00 W/m2
01:19 28.0 °C 25.0 °C 1006.8 hPa Calm     86% 0.00 mm 0.00 W/m2
01:24 28.0 °C 25.0 °C 1006.8 hPa Calm     87% 0.00 mm 0.00 W/m2
01:29 28.0 °C 25.0 °C 1007.1 hPa Calm     87% 0.00 mm 0.00 W/m2
01:34 28.0 °C 25.0 °C 1006.8 hPa Calm     87% 0.00 mm 0.00 W/m2
01:39 27.0 °C 25.0 °C 1007.1 hPa Calm     87% 0.00 mm 0.00 W/m2
01:44 28.0 °C 25.0 °C 1007.1 hPa Calm     87% 0.00 mm 0.00 W/m2
01:49 28.0 °C 25.0 °C 1007.1 hPa Calm     87% 0.00 mm 0.00 W/m2
01:54 27.0 °C 25.0 °C 1006.8 hPa Calm     87% 0.00 mm 0.00 W/m2
01:59 27.0 °C 25.0 °C 1007.1 hPa Calm     87% 0.00 mm 0.00 W/m2
02:04 27.0 °C 25.0 °C 1007.1 hPa Calm     87% 0.00 mm 0.00 W/m2
02:09 27.0 °C 25.0 °C 1007.1 hPa Calm     88% 0.00 mm 0.00 W/m2
02:14 27.0 °C 25.0 °C 1007.1 hPa Calm     88% 0.00 mm 0.00 W/m2
02:19 27.0 °C 25.0 °C 1007.1 hPa Calm     88% 0.00 mm 0.00 W/m2
02:24 27.0 °C 25.0 °C 1007.1 hPa Calm     87% 0.00 mm 0.00 W/m2
02:29 27.0 °C 25.0 °C 1006.8 hPa Calm     88% 0.00 mm 0.00 W/m2
02:34 27.0 °C 25.0 °C 1006.8 hPa Calm     87% 0.00 mm 0.00 W/m2
02:39 27.0 °C 25.0 °C 1007.1 hPa Calm     88% 0.00 mm 0.00 W/m2
02:44 27.0 °C 25.0 °C 1007.1 hPa Calm     88% 0.00 mm 0.00 W/m2
02:49 27.0 °C 25.0 °C 1007.1 hPa Calm     88% 0.00 mm 0.00 W/m2
02:54 27.0 °C 25.0 °C 1007.1 hPa Calm     87% 0.00 mm 0.00 W/m2
02:59 28.0 °C 25.0 °C 1007.1 hPa Calm     87% 0.00 mm 0.00 W/m2
03:04 27.0 °C 25.0 °C 1007.1 hPa Calm     87% 0.00 mm 0.00 W/m2
03:09 27.0 °C 25.0 °C 1007.1 hPa Calm     88% 0.00 mm 0.00 W/m2
03:14 27.0 °C 25.0 °C 1007.1 hPa Calm     88% 0.00 mm 0.00 W/m2
03:19 27.0 °C 25.0 °C 1007.1 hPa Calm     88% 0.00 mm 0.00 W/m2
03:24 27.0 °C 25.0 °C 1007.1 hPa Calm     88% 0.00 mm 0.00 W/m2
03:29 28.0 °C 25.0 °C 1006.8 hPa Calm     88% 0.00 mm 0.00 W/m2
03:34 27.0 °C 25.0 °C 1006.8 hPa Calm     88% 0.00 mm 0.00 W/m2
03:39 27.0 °C 25.0 °C 1006.8 hPa Calm     88% 0.00 mm 0.00 W/m2
03:44 27.0 °C 25.0 °C 1006.8 hPa Calm     87% 0.00 mm 0.00 W/m2
03:49 27.0 °C 25.0 °C 1006.8 hPa Calm     88% 0.00 mm 0.00 W/m2
03:54 27.0 °C 25.0 °C 1006.8 hPa Calm     87% 0.00 mm 0.00 W/m2
03:59 28.0 °C 25.0 °C 1007.1 hPa Calm     87% 0.00 mm 0.00 W/m2
04:04 28.0 °C 25.0 °C 1006.8 hPa Calm     88% 0.00 mm 0.00 W/m2
04:09 28.0 °C 25.0 °C 1006.8 hPa Calm     88% 0.00 mm 0.00 W/m2
04:14 28.0 °C 25.0 °C 1007.1 hPa Calm     88% 0.00 mm 0.00 W/m2
04:19 28.0 °C 25.0 °C 1007.1 hPa Calm     88% 0.00 mm 0.00 W/m2
04:24 27.0 °C 25.0 °C 1006.8 hPa Calm     89% 0.00 mm 0.00 W/m2
04:29 27.0 °C 25.0 °C 1006.8 hPa Calm     89% 0.00 mm 0.00 W/m2
04:34 27.0 °C 25.0 °C 1007.1 hPa Calm     90% 0.00 mm 0.00 W/m2
04:39 27.0 °C 25.0 °C 1007.1 hPa Calm     90% 0.00 mm 0.00 W/m2
04:44 27.0 °C 25.0 °C 1007.1 hPa Calm     90% 0.00 mm 0.00 W/m2
04:49 27.0 °C 25.0 °C 1007.5 hPa Calm     90% 0.00 mm 0.00 W/m2
04:54 27.0 °C 25.0 °C 1007.5 hPa Calm     90% 0.00 mm 0.00 W/m2
04:59 27.0 °C 25.0 °C 1007.5 hPa Calm     91% 0.00 mm 0.00 W/m2
05:04 27.0 °C 25.0 °C 1007.5 hPa Calm     91% 0.00 mm 0.00 W/m2
05:09 27.0 °C 25.0 °C 1007.5 hPa Calm     91% 0.00 mm 0.00 W/m2
05:14 27.0 °C 25.0 °C 1007.8 hPa Calm     91% 0.00 mm 0.00 W/m2
05:19 27.0 °C 25.0 °C 1007.5 hPa Calm     91% 0.00 mm 0.00 W/m2
05:24 27.0 °C 25.0 °C 1007.5 hPa Calm     91% 0.00 mm 0.00 W/m2
05:27 27.0 °C 25.0 °C 1007.5 hPa Calm     91% 0.00 mm 0.00 W/m2
05:39 27.0 °C 26.0 °C 1007.5 hPa Calm     92% 0.00 mm 6.96 W/m2
05:44 27.0 °C 26.0 °C 1007.8 hPa Calm     92% 0.00 mm 13.11 W/m2
05:49 27.0 °C 26.0 °C 1007.8 hPa Calm     92% 0.00 mm 23.12 W/m2
05:54 27.0 °C 25.0 °C 1007.8 hPa Calm     91% 0.00 mm 23.93 W/m2
05:59 27.0 °C 26.0 °C 1007.8 hPa Calm     92% 0.00 mm 27.35 W/m2
06:04 27.0 °C 26.0 °C 1007.8 hPa Calm     92% 0.00 mm 34.80 W/m2
06:14 27.0 °C 26.0 °C 1008.1 hPa Calm     92% 0.00 mm 60.17 W/m2
06:19 27.0 °C 26.0 °C 1008.1 hPa Calm     92% 0.00 mm 71.80 W/m2
06:24 27.0 °C 26.0 °C 1007.8 hPa Calm     91% 0.00 mm 142.05 W/m2
06:29 28.0 °C 26.0 °C 1007.8 hPa Calm     91% 0.00 mm 145.97 W/m2
06:34 28.0 °C 26.0 °C 1007.8 hPa Calm     90% 0.00 mm 152.65 W/m2
06:39 28.0 °C 26.0 °C 1007.8 hPa Calm     89% 0.00 mm 174.28 W/m2
06:44 28.0 °C 26.0 °C 1007.8 hPa Calm     88% 0.00 mm 190.67 W/m2
06:49 29.0 °C 26.0 °C 1007.8 hPa Calm     88% 0.00 mm 208.99 W/m2
06:54 28.0 °C 26.0 °C 1007.8 hPa Calm     87% 0.00 mm 227.52 W/m2
06:59 29.0 °C 26.0 °C 1007.8 hPa Calm     87% 0.00 mm 233.98 W/m2
07:04 29.0 °C 26.0 °C 1007.8 hPa Calm     85% 0.00 mm 239.82 W/m2
07:09 29.0 °C 26.0 °C 1007.8 hPa Calm     84% 0.00 mm 239.16 W/m2
07:14 29.0 °C 26.0 °C 1007.8 hPa Calm     84% 0.00 mm 245.03 W/m2
07:19 29.0 °C 26.0 °C 1007.8 hPa Calm     84% 0.00 mm 228.74 W/m2
07:24 29.0 °C 26.0 °C 1008.1 hPa Calm     84% 0.00 mm 249.41 W/m2
07:29 29.0 °C 26.0 °C 1007.8 hPa Calm     84% 0.00 mm 261.60 W/m2
07:34 29.0 °C 26.0 °C 1007.8 hPa Calm     84% 0.00 mm 267.84 W/m2
07:39 30.0 °C 26.0 °C 1007.8 hPa Calm     83% 0.00 mm 275.89 W/m2
07:44 30.0 °C 26.0 °C 1007.8 hPa Calm     82% 0.00 mm 288.88 W/m2
07:49 30.0 °C 26.0 °C 1007.8 hPa Calm     82% 0.00 mm 301.43 W/m2
07:54 30.0 °C 26.0 °C 1007.8 hPa Calm     82% 0.00 mm 229.01 W/m2
08:04 29.0 °C 26.0 °C 1007.8 hPa Calm     83% 0.00 mm 209.66 W/m2
08:08 30.0 °C 26.0 °C 1007.8 hPa Calm     83% 0.00 mm 215.80 W/m2
08:14 30.0 °C 26.0 °C 1007.8 hPa Calm     83% 0.00 mm 233.71 W/m2
08:19 30.0 °C 27.0 °C 1007.7 hPa Calm     82% 0.00 mm 239.46 W/m2
08:24 31.0 °C 27.0 °C 1007.8 hPa Calm     82% 0.00 mm 300.28 W/m2
08:29 31.0 °C 27.0 °C 1007.9 hPa Calm     79% 0.00 mm 328.52 W/m2
08:34 31.0 °C 26.0 °C 1007.9 hPa Calm     78% 0.00 mm 329.64 W/m2
08:37 31.0 °C 26.0 °C 1007.7 hPa Calm     77% 0.00 mm 311.85 W/m2
08:44 31.0 °C 26.0 °C 1007.7 hPa Calm     76% 0.00 mm 260.25 W/m2
08:49 31.0 °C 26.0 °C 1007.8 hPa Calm     78% 0.00 mm 266.74 W/m2
08:54 31.0 °C 27.0 °C 1008.0 hPa Calm     77% 0.00 mm 273.59 W/m2
08:58 31.0 °C 26.0 °C 1008.0 hPa Calm     77% 0.00 mm 274.74 W/m2
09:04 32.0 °C 27.0 °C 1007.8 hPa Calm     76% 0.00 mm 264.09 W/m2
09:09 31.0 °C 27.0 °C 1007.8 hPa Calm     76% 0.00 mm 237.91 W/m2
09:14 31.0 °C 27.0 °C 1008.1 hPa Calm     76% 0.00 mm 277.36 W/m2
09:19 32.0 °C 27.0 °C 1007.9 hPa Calm     77% 0.00 mm 314.42 W/m2
09:24 32.0 °C 27.0 °C 1008.1 hPa Calm     80% 0.00 mm 311.02 W/m2
09:29 31.0 °C 27.0 °C 1008.1 hPa Calm     79% 0.00 mm 277.85 W/m2
09:31 31.0 °C 27.0 °C 1007.6 hPa Calm     79% 0.00 mm 130.23 W/m2
09:39 31.0 °C 27.0 °C 1007.7 hPa Calm     79% 0.00 mm 185.48 W/m2
09:44 31.0 °C 27.0 °C 1007.5 hPa Calm     79% 0.00 mm 213.40 W/m2
09:47 31.0 °C 27.0 °C 1007.5 hPa Calm     79% 0.00 mm 290.74 W/m2
10:09 31.0 °C 27.0 °C 1007.5 hPa Calm     80% 0.00 mm 227.69 W/m2
10:14 32.0 °C 27.0 °C 1007.6 hPa Calm     79% 0.00 mm 236.89 W/m2
10:15 32.0 °C 27.0 °C 1007.6 hPa Calm     78% 0.00 mm 121.48 W/m2
10:24 31.0 °C 27.0 °C 1007.5 hPa SSE 3 km/h 8 km/h 79% 0.00 mm 293.65 W/m2
10:29 32.0 °C 28.0 °C 1007.5 hPa Calm     79% 0.00 mm 303.49 W/m2
10:34 32.0 °C 28.0 °C 1007.5 hPa Calm     78% 0.00 mm 329.18 W/m2
10:39 32.0 °C 28.0 °C 1007.5 hPa Calm     78% 0.00 mm 335.25 W/m2
10:44 32.0 °C 28.0 °C 1007.5 hPa Calm   4 km/h 78% 0.00 mm 394.65 W/m2
10:49 33.0 °C 28.0 °C 1007.4 hPa Calm     77% 0.00 mm 426.07 W/m2
10:54 33.0 °C 28.0 °C 1007.4 hPa South 8 km/h 12 km/h 76% 0.00 mm 429.57 W/m2
10:59 33.0 °C 28.0 °C 1007.3 hPa SW 7 km/h 8 km/h 77% 0.00 mm 429.91 W/m2
11:04 33.0 °C 28.0 °C 1007.1 hPa WNW 3 km/h 8 km/h 77% 0.00 mm 434.80 W/m2
11:07 33.0 °C 28.0 °C 1007.1 hPa Calm     76% 0.00 mm 428.73 W/m2
11:14 33.0 °C 28.0 °C 1007.1 hPa Calm     74% 0.00 mm 441.58 W/m2
11:19 33.0 °C 28.0 °C 1007.1 hPa Calm     74% 0.00 mm 452.22 W/m2
11:24 33.0 °C 28.0 °C 1007.2 hPa Calm     74% 0.00 mm 456.19 W/m2
11:29 34.0 °C 28.0 °C 1007.1 hPa Calm     73% 0.00 mm 461.67 W/m2
11:34 34.0 °C 28.0 °C 1007.1 hPa Calm     74% 0.00 mm 473.44 W/m2
11:39 33.0 °C 28.0 °C 1007.1 hPa Calm     75% 0.00 mm 503.38 W/m2
11:44 33.0 °C 28.0 °C 1007.1 hPa Calm     75% 0.00 mm 508.67 W/m2
11:49 34.0 °C 28.0 °C 1006.8 hPa Calm     73% 0.00 mm 523.30 W/m2
11:54 34.0 °C 28.0 °C 1006.8 hPa Calm     73% 0.00 mm 522.30 W/m2
11:59 34.0 °C 28.0 °C 1006.8 hPa SSE 2 km/h 8 km/h 73% 0.00 mm 480.02 W/m2
12:04 33.0 °C 28.0 °C 1006.3 hPa Calm     73% 0.00 mm 283.18 W/m2
12:08 33.0 °C 28.0 °C 1006.6 hPa Calm     72% 0.00 mm 349.49 W/m2
12:14 33.0 °C 28.0 °C 1006.7 hPa Calm     74% 0.00 mm 238.16 W/m2
12:19 33.0 °C 27.0 °C 1006.5 hPa Calm     74% 0.00 mm 231.75 W/m2
12:24 33.0 °C 27.0 °C 1006.5 hPa Calm     74% 0.00 mm 247.31 W/m2
12:29 33.0 °C 28.0 °C 1006.5 hPa Calm     74% 0.00 mm 236.18 W/m2
12:34 33.0 °C 28.0 °C 1006.5 hPa NNE 9 km/h 12 km/h 76% 0.00 mm 231.60 W/m2
12:39 32.0 °C 28.0 °C 1006.4 hPa NW 9 km/h 12 km/h 77% 0.00 mm 202.27 W/m2
12:43 32.0 °C 27.0 °C 1006.2 hPa NW 13 km/h 16 km/h 76% 0.00 mm 234.15 W/m2
12:47 32.0 °C 28.0 °C 1006.1 hPa NW 15 km/h 20 km/h 76% 0.00 mm 260.62 W/m2
12:54 33.0 °C 28.0 °C 1005.8 hPa SE 2 km/h 4 km/h 74% 0.00 mm 490.47 W/m2
12:59 34.0 °C 28.0 °C 1005.8 hPa NNW 1 km/h 4 km/h 72% 0.00 mm 470.21 W/m2
13:04 34.0 °C 28.0 °C 1005.9 hPa WNW 7 km/h 12 km/h 72% 0.00 mm 454.47 W/m2
13:08 34.0 °C 28.0 °C 1005.8 hPa South 1 km/h 8 km/h 71% 0.00 mm 495.58 W/m2
13:14 34.0 °C 28.0 °C 1005.8 hPa South 8 km/h 12 km/h 72% 0.00 mm 517.94 W/m2
13:19 34.0 °C 28.0 °C 1005.9 hPa SSW 1 km/h 4 km/h 72% 0.00 mm 373.51 W/m2
13:24 34.0 °C 28.0 °C 1005.6 hPa NW 10 km/h 12 km/h 72% 0.00 mm 218.49 W/m2
13:29 33.0 °C 28.0 °C 1005.6 hPa NNW 8 km/h 12 km/h 73% 0.00 mm 484.28 W/m2
13:34 33.0 °C 28.0 °C 1005.6 hPa NW 9 km/h 12 km/h 72% 0.00 mm 499.93 W/m2
13:39 33.0 °C 27.0 °C 1005.5 hPa NW 13 km/h 16 km/h 72% 0.00 mm 509.16 W/m2
13:44 34.0 °C 28.0 °C 1005.4 hPa NW 9 km/h 12 km/h 72% 0.00 mm 481.44 W/m2
13:49 34.0 °C 28.0 °C 1005.4 hPa North 3 km/h 4 km/h 71% 0.00 mm 475.22 W/m2
13:54 34.0 °C 28.0 °C 1005.4 hPa NNW 19 km/h 20 km/h 71% 0.00 mm 471.16 W/m2
13:59 34.0 °C 28.0 °C 1005.2 hPa NW 10 km/h 12 km/h 70% 0.00 mm 469.62 W/m2
14:04 35.0 °C 28.0 °C 1005.2 hPa South 2 km/h 4 km/h 69% 0.00 mm 460.47 W/m2
14:09 35.0 °C 28.0 °C 1005.2 hPa NW 10 km/h 12 km/h 69% 0.00 mm 469.23 W/m2
14:14 35.0 °C 28.0 °C 1005.2 hPa NW 13 km/h 16 km/h 69% 0.00 mm 439.99 W/m2
14:19 35.0 °C 28.0 °C 1005.1 hPa NW 8 km/h 12 km/h 68% 0.00 mm 465.22 W/m2
14:24 35.0 °C 28.0 °C 1004.8 hPa Calm     68% 0.00 mm 460.37 W/m2
14:27 35.0 °C 28.0 °C 1004.8 hPa Calm   4 km/h 68% 0.00 mm 456.24 W/m2
14:34 35.0 °C 28.0 °C 1004.7 hPa SSW 2 km/h 4 km/h 68% 0.00 mm 367.71 W/m2
14:39 34.0 °C 28.0 °C 1004.5 hPa SSE 6 km/h 8 km/h 70% 0.00 mm 148.90 W/m2
14:44 34.0 °C 28.0 °C 1004.5 hPa WSW 6 km/h 8 km/h 71% 0.00 mm 138.33 W/m2
14:49 34.0 °C 28.0 °C 1004.5 hPa SW 4 km/h 8 km/h 72% 0.00 mm 125.29 W/m2
14:54 34.0 °C 28.0 °C 1004.7 hPa SSW 5 km/h 8 km/h 72% 0.00 mm 124.04 W/m2
14:59 33.0 °C 28.0 °C 1004.5 hPa South 5 km/h 8 km/h 72% 0.00 mm 118.56 W/m2
15:04 33.0 °C 28.0 °C 1004.5 hPa South 3 km/h 4 km/h 73% 0.00 mm 118.25 W/m2
15:09 33.0 °C 28.0 °C 1004.7 hPa SSW 5 km/h 8 km/h 74% 0.00 mm 122.16 W/m2
15:14 33.0 °C 28.0 °C 1004.4 hPa NW 3 km/h 4 km/h 73% 0.00 mm 123.80 W/m2
15:19 33.0 °C 28.0 °C 1004.4 hPa Calm     73% 0.00 mm 123.16 W/m2
15:23 33.0 °C 27.0 °C 1004.4 hPa Calm     74% 0.00 mm 116.92 W/m2
15:28 33.0 °C 27.0 °C 1004.4 hPa Calm     73% 0.00 mm 112.74 W/m2
15:34 33.0 °C 28.0 °C 1004.5 hPa Calm     75% 0.00 mm 108.53 W/m2
15:39 32.0 °C 28.0 °C 1004.6 hPa NNW 8 km/h 12 km/h 76% 0.00 mm 109.34 W/m2
15:44 32.0 °C 27.0 °C 1004.5 hPa NNW 8 km/h 8 km/h 77% 0.00 mm 118.91 W/m2
15:49 32.0 °C 28.0 °C 1004.6 hPa NW 5 km/h 8 km/h 78% 0.00 mm 124.09 W/m2
15:54 32.0 °C 28.0 °C 1004.7 hPa NW 1 km/h 8 km/h 77% 0.00 mm 123.78 W/m2
15:59 32.0 °C 28.0 °C 1005.1 hPa Calm     77% 0.00 mm 99.85 W/m2
16:04 32.0 °C 28.0 °C 1005.1 hPa Calm     76% 0.00 mm 67.15 W/m2
16:09 32.0 °C 28.0 °C 1004.9 hPa Calm     76% 0.00 mm 79.02 W/m2
16:14 32.0 °C 28.0 °C 1004.9 hPa Calm     76% 0.00 mm 84.09 W/m2
16:19 32.0 °C 28.0 °C 1004.7 hPa Calm     76% 0.00 mm 114.58 W/m2
16:24 32.0 °C 27.0 °C 1004.7 hPa Calm     75% 0.00 mm 145.43 W/m2
16:29 33.0 °C 28.0 °C 1004.9 hPa Calm     75% 0.00 mm 156.54 W/m2
16:34 33.0 °C 28.0 °C 1004.9 hPa Calm     75% 0.00 mm 143.10 W/m2
16:39 33.0 °C 28.0 °C 1005.1 hPa Calm     74% 0.00 mm 154.38 W/m2
16:44 33.0 °C 28.0 °C 1005.1 hPa Calm     77% 0.00 mm 199.45 W/m2
16:48 33.0 °C 28.0 °C 1005.0 hPa Calm     78% 0.00 mm 210.56 W/m2
16:53 33.0 °C 28.0 °C 1005.1 hPa Calm     77% 0.00 mm 177.04 W/m2
16:57 33.0 °C 28.0 °C 1004.9 hPa Calm     76% 0.00 mm 190.67 W/m2
17:01 33.0 °C 28.0 °C 1004.7 hPa Calm     75% 0.00 mm 209.02 W/m2
17:09 34.0 °C 28.0 °C 1005.1 hPa Calm     73% 0.00 mm 236.59 W/m2
17:14 33.0 °C 28.0 °C 1005.3 hPa Calm     73% 0.00 mm 184.28 W/m2
17:19 34.0 °C 28.0 °C 1005.2 hPa Calm     72% 0.00 mm 157.96 W/m2
17:24 34.0 °C 28.0 °C 1005.1 hPa Calm     73% 0.00 mm 126.20 W/m2
17:26 33.0 °C 28.0 °C 1004.8 hPa Calm     73% 0.00 mm 131.48 W/m2
17:34 33.0 °C 28.0 °C 1005.1 hPa Calm     74% 0.00 mm 102.66 W/m2
17:39 33.0 °C 27.0 °C 1005.8 hPa NNE 15 km/h 24 km/h 75% 0.00 mm 31.32 W/m2
17:44 31.0 °C 26.0 °C 1005.8 hPa NNE 17 km/h 24 km/h 76% 0.00 mm 19.73 W/m2
17:45 30.0 °C 25.0 °C 1005.3 hPa NNE 8 km/h 12 km/h 75% 0.00 mm 19.26 W/m2
17:51 30.0 °C 25.0 °C 1005.3 hPa NNE 8 km/h 8 km/h 74% 0.00 mm 14.16 W/m2
17:57 30.0 °C 25.0 °C 1005.7 hPa North 14 km/h 16 km/h 75% 0.00 mm 16.78 W/m2
18:03 29.0 °C 25.0 °C 1005.8 hPa NNE 5 km/h 12 km/h 81% 14.48 mm 1.93 W/m2
18:09 28.0 °C 25.0 °C 1006.3 hPa NNE 9 km/h 12 km/h 88% 35.99 mm 0.00 W/m2
18:14 27.0 °C 25.0 °C 1006.3 hPa Calm   4 km/h 91% 37.80 mm 0.00 W/m2
18:19 27.0 °C 26.0 °C 1006.8 hPa SE 10 km/h 12 km/h 92% 23.39 mm 0.00 W/m2
18:23 27.0 °C 26.0 °C 1006.8 hPa Calm     93% 10.80 mm 0.00 W/m2
18:29 27.0 °C 26.0 °C 1006.8 hPa Calm     93% 0.00 mm 0.00 W/m2
18:33 27.0 °C 26.0 °C 1006.8 hPa NW 4 km/h 8 km/h 93% 0.00 mm 0.00 W/m2
18:35 27.0 °C 26.0 °C 1006.5 hPa Calm     93% 0.00 mm 0.00 W/m2
18:43 27.0 °C 26.0 °C 1006.6 hPa Calm     93% 0.00 mm 0.00 W/m2
18:48 27.0 °C 26.0 °C 1006.4 hPa Calm     92% 0.00 mm 0.00 W/m2
18:54 27.0 °C 25.0 °C 1006.4 hPa Calm     91% 0.00 mm 0.00 W/m2
18:59 27.0 °C 25.0 °C 1006.5 hPa Calm     90% 0.00 mm 0.00 W/m2
19:04 27.0 °C 25.0 °C 1006.4 hPa Calm     88% 0.00 mm 0.00 W/m2
19:09 27.0 °C 24.0 °C 1006.7 hPa North 4 km/h 8 km/h 85% 0.00 mm 0.00 W/m2
19:14 27.0 °C 24.0 °C 1006.9 hPa North 5 km/h 8 km/h 81% 0.00 mm 0.00 W/m2
19:19 27.0 °C 24.0 °C 1007.1 hPa North 5 km/h 8 km/h 81% 0.00 mm 0.00 W/m2
19:24 27.0 °C 24.0 °C 1007.2 hPa Calm     81% 0.00 mm 0.00 W/m2
19:27 27.0 °C 24.0 °C 1007.1 hPa Calm     81% 0.00 mm 0.00 W/m2
19:34 28.0 °C 24.0 °C 1007.5 hPa Calm     82% 0.00 mm 0.00 W/m2
19:39 28.0 °C 24.0 °C 1007.5 hPa Calm     82% 0.00 mm 0.00 W/m2
19:44 27.0 °C 24.0 °C 1007.8 hPa Calm     82% 0.00 mm 0.00 W/m2
19:49 27.0 °C 24.0 °C 1007.5 hPa Calm     81% 0.00 mm 0.00 W/m2
19:54 27.0 °C 24.0 °C 1007.8 hPa Calm     81% 0.00 mm 0.00 W/m2
19:59 27.0 °C 24.0 °C 1007.8 hPa Calm     81% 0.00 mm 0.00 W/m2
20:04 28.0 °C 24.0 °C 1008.1 hPa Calm     82% 0.00 mm 0.00 W/m2
20:09 28.0 °C 24.0 °C 1008.1 hPa Calm     81% 0.00 mm 0.00 W/m2
20:14 27.0 °C 24.0 °C 1008.1 hPa Calm     81% 0.00 mm 0.00 W/m2
20:19 28.0 °C 24.0 °C 1008.1 hPa Calm     82% 0.00 mm 0.00 W/m2
20:24 28.0 °C 24.0 °C 1007.8 hPa Calm     82% 0.00 mm 0.00 W/m2
20:29 28.0 °C 24.0 °C 1007.8 hPa Calm     82% 0.00 mm 0.00 W/m2
20:34 28.0 °C 24.0 °C 1007.8 hPa Calm     82% 0.00 mm 0.00 W/m2
20:39 28.0 °C 25.0 °C 1008.1 hPa Calm     82% 0.00 mm 0.00 W/m2
20:44 28.0 °C 25.0 °C 1007.8 hPa Calm     82% 0.00 mm 0.00 W/m2
20:49 28.0 °C 25.0 °C 1008.1 hPa Calm     82% 0.00 mm 0.00 W/m2
20:54 28.0 °C 25.0 °C 1008.1 hPa Calm     81% 0.00 mm 0.00 W/m2
20:59 28.0 °C 25.0 °C 1008.1 hPa Calm     81% 0.00 mm 0.00 W/m2
21:04 28.0 °C 25.0 °C 1008.5 hPa Calm     81% 0.00 mm 0.00 W/m2
21:09 28.0 °C 25.0 °C 1008.5 hPa Calm     82% 0.00 mm 0.00 W/m2
21:14 28.0 °C 25.0 °C 1008.8 hPa Calm     83% 0.00 mm 0.00 W/m2
21:19 28.0 °C 25.0 °C 1008.9 hPa Calm     84% 0.00 mm 0.00 W/m2
21:24 28.0 °C 25.0 °C 1009.3 hPa Calm     83% 0.00 mm 0.00 W/m2
21:29 28.0 °C 25.0 °C 1009.3 hPa Calm     82% 0.00 mm 0.00 W/m2
21:34 28.0 °C 24.0 °C 1009.2 hPa Calm     80% 0.00 mm 0.00 W/m2
21:39 28.0 °C 24.0 °C 1009.1 hPa Calm     81% 0.00 mm 0.00 W/m2
21:44 28.0 °C 24.0 °C 1009.0 hPa Calm     82% 0.00 mm 0.00 W/m2
21:49 28.0 °C 24.0 °C 1008.9 hPa Calm     82% 1.80 mm 0.00 W/m2
21:54 27.0 °C 24.0 °C 1008.9 hPa North 3 km/h 12 km/h 83% 1.80 mm 0.00 W/m2
21:59 27.0 °C 24.0 °C 1009.0 hPa North 11 km/h 16 km/h 83% 1.80 mm 0.00 W/m2
22:04 27.0 °C 24.0 °C 1009.3 hPa North 14 km/h 16 km/h 84% 0.00 mm 0.00 W/m2
22:09 27.0 °C 24.0 °C 1009.5 hPa North 15 km/h 20 km/h 84% 0.00 mm 0.00 W/m2
22:14 27.0 °C 24.0 °C 1009.5 hPa North 15 km/h 20 km/h 85% 0.00 mm 0.00 W/m2
22:19 27.0 °C 24.0 °C 1009.5 hPa NW 11 km/h 16 km/h 86% 0.00 mm 0.00 W/m2
22:24 27.0 °C 24.0 °C 1009.4 hPa NW 10 km/h 12 km/h 86% 0.00 mm 0.00 W/m2
22:29 26.0 °C 24.0 °C 1009.2 hPa NW 15 km/h 20 km/h 87% 0.00 mm 0.00 W/m2
22:34 26.0 °C 24.0 °C 1009.1 hPa NNW 14 km/h 20 km/h 87% 0.00 mm 0.00 W/m2
22:39 26.0 °C 24.0 °C 1009.1 hPa NNW 13 km/h 16 km/h 87% 0.00 mm 0.00 W/m2
22:44 26.0 °C 24.0 °C 1009.1 hPa NW 20 km/h 24 km/h 88% 0.00 mm 0.00 W/m2
22:49 26.0 °C 24.0 °C 1009.1 hPa NNW 10 km/h 16 km/h 89% 0.00 mm 0.00 W/m2
22:54 26.0 °C 24.0 °C 1009.2 hPa NNW 10 km/h 12 km/h 89% 0.00 mm 0.00 W/m2
22:59 26.0 °C 24.0 °C 1009.3 hPa Calm   4 km/h 89% 0.00 mm 0.00 W/m2
23:04 26.0 °C 24.0 °C 1009.1 hPa North 4 km/h 4 km/h 89% 0.00 mm 0.00 W/m2
23:09 26.0 °C 24.0 °C 1009.1 hPa North 10 km/h 12 km/h 89% 0.00 mm 0.00 W/m2
23:14 26.0 °C 25.0 °C 1009.1 hPa NW 18 km/h 20 km/h 90% 0.00 mm 0.00 W/m2
23:19 26.0 °C 25.0 °C 1008.8 hPa NNW 10 km/h 16 km/h 90% 0.00 mm 0.00 W/m2
23:24 26.0 °C 25.0 °C 1008.8 hPa North 8 km/h 12 km/h 90% 0.00 mm 0.00 W/m2
23:29 26.0 °C 25.0 °C 1008.8 hPa North 8 km/h 16 km/h 90% 0.00 mm 0.00 W/m2
23:34 26.0 °C 25.0 °C 1008.8 hPa North 9 km/h 12 km/h 90% 0.00 mm 0.00 W/m2
23:39 26.0 °C 25.0 °C 1008.8 hPa NNE 8 km/h 12 km/h 90% 0.00 mm 0.00 W/m2
23:44 26.0 °C 25.0 °C 1008.8 hPa NNE 7 km/h 12 km/h 90% 0.00 mm 0.00 W/m2
23:49 26.0 °C 24.0 °C 1008.8 hPa NNE 5 km/h 8 km/h 89% 0.00 mm 0.00 W/m2
23:54 26.0 °C 24.0 °C 1008.8 hPa NNE 9 km/h 12 km/h 89% 0.00 mm 0.00 W/m2
23:59 26.0 °C 24.0 °C 1008.8 hPa NNE 9 km/h 12 km/h 89% 0.00 mm 0.00 W/m2
PIMOHWEATHER Philippines
Compliments of Weather Underground - 2 mb